Погода в Больших Кабанах

Россия / Республика Татарстан     55°38′51″N   49°18′28″E
темп.,
°C
ветер,
м/с
пор.,
м/с
влажн.,
%
обл.,
%
осадки,
мм/ч
давл.,
гПа
погр.,
м
22 апреля, чт
чт2200:00+3ююв81592100 0.1 1021699
03:00+3ю71494100 0.1 1022545
06:00+3ю61195100 0.0 1022387
09:00+6ю6988100 0.0 1023467
12:00+8ю698099 0.0 1023670
15:00+10ю7973100 0.0 10221186
18:00+9ююв5117758 0.1 1022429
21:00+6ююв512888 0.4 1023295
23 апреля, пт
пт2300:00+5ю498967 0.0 1024221
03:00+3ю33938 0.0 102451
06:00+4ююв24922 0.0 1025107
09:00+10ююв44720 0.0 1026504
12:00+13ююв44563 0.0 10251280
15:00+14ююв455411 0.0 10241378
18:00+13вюв356396 0.0 1022170
21:00+10вюв3771100 0.1 1022139
24 апреля, сб
сб2400:00+9в4878100 0.0 1020221
03:00+7всв4883100 0.0 1018207
06:00+7в4986100 0.0 1016431
09:00+7вюв4791100 1.1 10151073
12:00+7в4691100 1.4 10131061
15:00+7вюв5791100 2.2 1011794
18:00+6юв5894100 0.2 1010469
21:00+6юв499576 0.3 1008344
25 апреля, вс
вс2500:00+6юв61393100 0.3 1006521
03:00+5зюз6892100 3.1 1005773
06:00+5зюз5978100 0.1 10061023
09:00+7зюз5866100 0.1 10071376
12:00+9з585798 0.0 10081541
15:00+10з5945100 0.4 10102221
18:00+9зюз61056100 0.0 1012548
21:00+6зюз5117130 0.0 1014377
26 апреля, пн
пн2600:00+4зюз5127383 0.0 1015384
03:00+3юз511785 0.0 1016324
06:00+4юз511750 0.0 1017481
09:00+8юз6105281 0.0 10171503
12:00+9зюз6105693 0.1 10161762
15:00+11зюз61048100 0.4 10151925
18:00+9ююз4757100 0.3 1014335
21:00+6ю41265100 0.3 1013310